• In Russia
  • List of Countries
  • For 7 days
  • Water Temperature
  • Satellite Maps
  • Weather Map
  • Weather Widgets
  • user-avatar
    Login

    Hourly Weather Freetown

    Today, 23 September, Sunday

    Time Temperature Precipitation Wind Pressure Humidity
    00:00 +26°C° 0.1 mm 2 mps 755 mmHg 93%
    01:00 +26°C° 0.1 mm 2 mps 754 mmHg 93%
    02:00 +25°C° 0.1 mm 1 mps 754 mmHg 93%
    03:00 +25°C° 0.4 mm 2 mps 754 mmHg 94%
    04:00 +25°C° 0.4 mm 2 mps 754 mmHg 94%
    05:00 +25°C° 0.4 mm 2 mps 754 mmHg 94%
    06:00 +26°C° 0.5 mm 2 mps 755 mmHg 90%
    07:00 +28°C° 0.5 mm 2 mps 755 mmHg 85%
    08:00 +29°C° 0.5 mm 2 mps 755 mmHg 81%
    09:00 +31°C° 0.2 mm 2 mps 755 mmHg 72%
    10:00 +34°C° 0.2 mm 2 mps 755 mmHg 63%
    11:00 +36°C° 0.2 mm 2 mps 755 mmHg 55%
    12:00 +35°C° 1.1 mm 2 mps 754 mmHg 63%
    13:00 +33°C° 1.1 mm 3 mps 754 mmHg 71%
    14:00 +32°C° 1.1 mm 4 mps 753 mmHg 79%
    15:00 +30°C° 1.4 mm 4 mps 753 mmHg 83%
    16:00 +29°C° 1.4 mm 4 mps 753 mmHg 87%
    17:00 +28°C° 1.4 mm 4 mps 753 mmHg 91%
    18:00 +27°C° 1.1 mm 4 mps 754 mmHg 92%
    19:00 +27°C° 1.1 mm 3 mps 754 mmHg 93%
    20:00 +27°C° 1.1 mm 3 mps 755 mmHg 94%
    21:00 +27°C° 2.3 mm 3 mps 755 mmHg 94%
    22:00 +26°C° 2.3 mm 3 mps 755 mmHg 94%
    23:00 +26°C° 2.3 mm 3 mps 755 mmHg 94%

    Tomorrow, 24 September, Monday

    Time Temperature Precipitation Wind Pressure Humidity
    00:00 +26°C° 0.7 mm 3 mps 755 mmHg 94%
    01:00 +26°C° 0.7 mm 3 mps 754 mmHg 95%
    02:00 +26°C° 0.7 mm 3 mps 754 mmHg 95%
    03:00 +26°C° 0.5 mm 3 mps 754 mmHg 95%
    04:00 +26°C° 0.5 mm 2 mps 754 mmHg 96%
    05:00 +26°C° 0.5 mm 2 mps 754 mmHg 96%
    06:00 +26°C° 0.8 mm 2 mps 754 mmHg 93%
    07:00 +27°C° 0.8 mm 2 mps 755 mmHg 90%
    08:00 +28°C° 0.8 mm 1 mps 755 mmHg 88%
    09:00 +30°C° 0.1 mm 1 mps 755 mmHg 78%
    10:00 +33°C° 0.1 mm 1 mps 755 mmHg 69%
    11:00 +35°C° 0.1 mm 1 mps 755 mmHg 60%
    12:00 +34°C° 1.2 mm 1 mps 754 mmHg 64%
    13:00 +34°C° 1.2 mm 2 mps 754 mmHg 68%
    14:00 +34°C° 1.2 mm 2 mps 753 mmHg 72%
    15:00 +31°C° 2.5 mm 2 mps 753 mmHg 78%
    16:00 +29°C° 2.5 mm 2 mps 753 mmHg 85%
    17:00 +27°C° 2.5 mm 2 mps 753 mmHg 92%
    18:00 +27°C° 1.4 mm 1 mps 754 mmHg 93%
    19:00 +26°C° 1.4 mm 1 mps 754 mmHg 94%
    20:00 +26°C° 1.4 mm 1 mps 755 mmHg 94%
    21:00 +26°C° 0.8 mm 1 mps 755 mmHg 95%
    22:00 +26°C° 0.8 mm 2 mps 755 mmHg 95%
    23:00 +26°C° 0.8 mm 2 mps 756 mmHg 95%

    Day after tomorrow, 25 September, Tuesday

    Time Temperature Precipitation Wind Pressure Humidity
    00:00 +25°C° 0.7 mm 2 mps 755 mmHg 95%
    01:00 +25°C° 0.7 mm 2 mps 754 mmHg 96%
    02:00 +25°C° 0.7 mm 2 mps 754 mmHg 96%
    03:00 +25°C° 0.7 mm 2 mps 754 mmHg 96%
    04:00 +25°C° 0.7 mm 2 mps 754 mmHg 96%
    05:00 +25°C° 0.7 mm 2 mps 754 mmHg 97%
    06:00 +25°C° 1.8 mm 3 mps 755 mmHg 95%
    07:00 +26°C° 1.8 mm 3 mps 755 mmHg 94%
    08:00 +26°C° 1.8 mm 3 mps 756 mmHg 93%
    09:00 +26°C° 1.6 mm 3 mps 756 mmHg 93%
    10:00 +27°C° 1.6 mm 3 mps 756 mmHg 93%
    11:00 +27°C° 1.6 mm 2 mps 756 mmHg 93%
    12:00 +28°C° 0.6 mm 2 mps 755 mmHg 86%
    13:00 +29°C° 0.6 mm 2 mps 755 mmHg 78%
    14:00 +31°C° 0.6 mm 1 mps 754 mmHg 71%
    15:00 +30°C° 0 mm 1 mps 754 mmHg 75%
    16:00 +29°C° 0 mm 1 mps 754 mmHg 78%
    17:00 +28°C° 0 mm 1 mps 754 mmHg 81%
    18:00 +27°C° 0 mm 1 mps 754 mmHg 83%
    19:00 +27°C° 0 mm 1 mps 755 mmHg 85%
    20:00 +26°C° 0 mm 1 mps 755 mmHg 87%
    21:00 +26°C° 0 mm 1 mps 755 mmHg 88%
    22:00 +25°C° 0 mm 1 mps 756 mmHg 89%
    23:00 +25°C° 0 mm 1 mps 756 mmHg 89%

    26 September, Wednesday

    Time Temperature Precipitation Wind Pressure Humidity
    00:00 +25°C° 0 mm 1 mps 755 mmHg 90%
    01:00 +25°C° 0 mm 1 mps 754 mmHg 91%
    02:00 +25°C° 0 mm 1 mps 754 mmHg 92%
    03:00 +25°C° 0 mm 1 mps 754 mmHg 93%
    04:00 +24°C° 0 mm 1 mps 754 mmHg 94%
    05:00 +24°C° 0 mm 1 mps 754 mmHg 94%
    06:00 +26°C° 0 mm 1 mps 755 mmHg 89%
    07:00 +28°C° 0 mm 1 mps 755 mmHg 83%
    08:00 +29°C° 0 mm 1 mps 756 mmHg 77%
    09:00 +31°C° 0 mm 1 mps 756 mmHg 70%
    10:00 +33°C° 0 mm 1 mps 755 mmHg 62%
    11:00 +35°C° 0 mm 1 mps 755 mmHg 55%
    12:00 +35°C° 0 mm 2 mps 754 mmHg 57%
    13:00 +35°C° 0 mm 2 mps 753 mmHg 59%
    14:00 +34°C° 0 mm 3 mps 753 mmHg 61%
    15:00 +33°C° 0.1 mm 3 mps 753 mmHg 67%
    16:00 +32°C° 0.1 mm 4 mps 753 mmHg 73%
    17:00 +30°C° 0.1 mm 4 mps 753 mmHg 78%
    18:00 +29°C° 0.1 mm 3 mps 754 mmHg 82%
    19:00 +28°C° 0.1 mm 3 mps 755 mmHg 85%
    20:00 +27°C° 0.1 mm 3 mps 755 mmHg 89%
    21:00 +27°C° 0.4 mm 3 mps 755 mmHg 90%
    22:00 +27°C° 0.4 mm 3 mps 755 mmHg 92%
    23:00 +26°C° 0.4 mm 3 mps 755 mmHg 93%

    27 September, Thursday

    Time Temperature Precipitation Wind Pressure Humidity
    00:00 +26°C° 0 mm 3 mps 754 mmHg 94%
    01:00 +26°C° 0 mm 3 mps 754 mmHg 94%
    02:00 +26°C° 0 mm 3 mps 753 mmHg 94%
    03:00 +26°C° 0 mm 3 mps 753 mmHg 94%
    04:00 +26°C° 0 mm 3 mps 753 mmHg 95%
    05:00 +26°C° 0 mm 2 mps 754 mmHg 95%
    06:00 +27°C° 0.2 mm 2 mps 754 mmHg 91%
    07:00 +28°C° 0.2 mm 3 mps 755 mmHg 87%
    08:00 +30°C° 0.2 mm 3 mps 755 mmHg 84%
    09:00 +31°C° 0.2 mm 3 mps 755 mmHg 76%
    10:00 +34°C° 0.2 mm 3 mps 754 mmHg 69%
    11:00 +35°C° 0.2 mm 3 mps 754 mmHg 62%
    12:00 +34°C° 1 mm 3 mps 753 mmHg 66%
    13:00 +34°C° 1 mm 4 mps 753 mmHg 71%
    14:00 +33°C° 1 mm 4 mps 752 mmHg 75%
    15:00 +31°C° 2.1 mm 3 mps 752 mmHg 80%
    16:00 +29°C° 2.1 mm 2 mps 753 mmHg 85%
    17:00 +28°C° 2.1 mm 1 mps 753 mmHg 90%
    18:00 +27°C° 1.2 mm 1 mps 753 mmHg 91%
    19:00 +27°C° 1.2 mm 2 mps 754 mmHg 91%
    20:00 +26°C° 1.2 mm 2 mps 755 mmHg 92%
    21:00 +26°C° 1 mm 2 mps 755 mmHg 93%
    22:00 +26°C° 1 mm 2 mps 755 mmHg 93%
    23:00 +26°C° 1 mm 2 mps 755 mmHg 94%

    28 September, Friday

    Time Temperature Precipitation Wind Pressure Humidity
    00:00 +26°C° 1.5 mm 2 mps 754 mmHg 95%
    01:00 +25°C° 1.5 mm 3 mps 754 mmHg 95%
    02:00 +25°C° 1.5 mm 3 mps 753 mmHg 96%
    03:00 +25°C° 1 mm 3 mps 753 mmHg 96%
    04:00 +25°C° 1 mm 3 mps 754 mmHg 96%
    05:00 +25°C° 1 mm 3 mps 754 mmHg 96%
    06:00 +25°C° 0.2 mm 3 mps 754 mmHg 95%
    07:00 +26°C° 0.2 mm 3 mps 755 mmHg 94%
    08:00 +26°C° 0.2 mm 3 mps 755 mmHg 94%
    09:00 +28°C° 0.1 mm 3 mps 755 mmHg 86%
    10:00 +29°C° 0.1 mm 3 mps 755 mmHg 79%
    11:00 +31°C° 0.1 mm 3 mps 755 mmHg 72%
    12:00 +31°C° 0.2 mm 3 mps 754 mmHg 72%
    13:00 +31°C° 0.2 mm 3 mps 754 mmHg 72%
    14:00 +31°C° 0.2 mm 3 mps 753 mmHg 72%
    15:00 +30°C° 0.2 mm 3 mps 753 mmHg 76%
    16:00 +29°C° 0.2 mm 4 mps 754 mmHg 80%
    17:00 +29°C° 0.2 mm 4 mps 754 mmHg 84%
    18:00 +28°C° 0.3 mm 4 mps 754 mmHg 88%
    19:00 +27°C° 0.3 mm 4 mps 755 mmHg 91%
    20:00 +26°C° 0.3 mm 3 mps 755 mmHg 94%
    21:00 +26°C° 0.5 mm 3 mps 755 mmHg 94%
    22:00 +26°C° 0.5 mm 3 mps 755 mmHg 95%
    23:00 +26°C° 0.5 mm 3 mps 755 mmHg 95%
    Show more